EST,Max TemperatureF,Mean TemperatureF,Min TemperatureF,Max Dew PointF,MeanDew PointF,Min DewpointF,Max Humidity, Mean Humidity, Min Humidity, Max Sea Level PressureIn, Mean Sea Level PressureIn, Min Sea Level PressureIn, Max VisibilityMiles, Mean VisibilityMiles, Min VisibilityMiles, Max Wind SpeedMPH, Mean Wind SpeedMPH, Max Gust SpeedMPH,PrecipitationIn, CloudCover, Events, WindDirDegrees
2013-2-1,21,12,3,21,4,-4,100,78,62,30.11,29.93,29.65,10,9,1,30,21,44,0.00,3,Snow,279
2013-2-2,23,13,3,21,10,0,100,83,46,30.10,30.00,29.84,10,7,0,20,14,28,0.01,5,Snow,253
2013-2-3,21,18,15,21,18,10,100,95,79,29.84,29.75,29.70,10,5,0,37,18,52,0.00,8,Fog-Snow,277
2013-2-4,33,22,10,30,16,9,100,81,60,29.93,29.86,29.80,10,9,0,32,22,43,0.00,4,Snow,265
2013-2-5,33,32,30,32,29,27,100,88,80,29.87,29.83,29.77,10,10,0,28,18,38,0.00,7,Snow,264
2013-2-6,35,30,26,30,25,21,100,79,56,30.24,30.07,29.87,10,10,10,30,15,40,0.00,4,,275
2013-2-7,32,29,24,28,26,21,100,97,69,30.25,30.17,30.02,10,3,0,13,8,18,0.00,7,Fog-Snow,141
2013-2-8,33,28,21,34,27,19,100,98,86,30.00,29.87,29.74,10,4,0,29,11,45,0.02,8,Fog-Rain-Snow,284
2013-2-9,33,24,15,19,11,-6,93,60,20,30.28,30.14,29.95,10,10,10,29,19,44,0.00,1,,294
2013-2-10,33,30,26,28,13,-9,93,51,15,30.32,30.24,30.10,10,10,7,16,9,23,0.02,3,,166
2013-2-11,51,40,30,46,35,16,100,79,37,30.09,29.95,29.86,10,6,0,30,19,41,0.12,5,Fog-Rain-Snow,237
2013-2-12,46,37,28,23,18,14,74,51,31,29.98,29.94,29.87,10,10,10,32,21,44,0.00,1,,280
2013-2-13,39,32,26,30,22,7,100,73,26,29.91,29.71,29.56,10,6,0,21,7,30,0.07,7,Snow,188
2013-2-14,35,28,21,27,23,19,100,81,56,29.95,29.89,29.73,10,10,0,23,14,30,0.00,2,,274
2013-2-15,42,34,24,34,28,25,100,83,57,30.00,29.95,29.89,10,8,0,17,13,22,0.02,4,Rain-Snow,263
2013-2-16,24,19,14,25,16,7,100,84,63,29.91,29.80,29.73,10,10,5,20,11,28,0.00,6,Snow,301
2013-2-17,14,10,5,12,1,-4,100,69,57,30.02,29.85,29.72,10,9,2,24,18,37,0.00,5,Snow,289
2013-2-18,39,24,10,21,11,1,67,56,41,30.20,30.13,30.03,10,10,10,21,15,26,0.00,0,,237
2013-2-19,37,30,23,36,25,12,100,78,55,30.05,29.84,29.71,10,8,0,28,16,43,0.09,6,Snow,234
2013-2-20,24,19,14,12,9,7,79,67,58,30.00,29.89,29.80,10,10,10,26,22,39,0.00,2,,282
2013-2-21,35,22,10,16,11,7,92,66,38,30.16,30.06,29.95,10,10,10,24,15,31,0.00,0,,293
2013-2-22,28,24,19,28,22,14,100,92,64,30.20,30.11,30.04,10,4,0,14,7,20,0.01,8,Fog-Snow,161
2013-2-23,46,37,28,41,36,28,100,90,71,30.02,29.91,29.81,10,6,0,15,6,,0.00,4,Fog-Rain-Snow,247
2013-2-24,37,30,23,37,24,16,100,73,41,30.00,29.88,29.79,10,10,10,23,14,31,0.00,2,,283
2013-2-25,32,24,17,19,17,12,93,76,55,30.08,30.04,29.99,10,10,10,12,6,17,0.00,0,,101
2013-2-26,35,28,23,36,25,16,100,90,69,30.05,29.80,29.57,10,4,0,18,9,24,0.57,7,Fog-Rain-Snow,102
2013-2-27,35,32,28,36,31,28,100,99,93,29.68,29.63,29.54,10,6,0,20,8,25,0.07,8,Fog-Snow,265
2013-2-28,28,26,23,28,24,21,100,96,86,29.70,29.63,29.58,10,8,0,23,14,29,0.00,8,Snow,276